Temperature
8 7 7 7 8 8 8 8 8 9 10 9 9 9 10 10 10 10 10 10 10 11 11 11 10 10 10 10 10 10 10 10 11 11 11 11 11 11 11 11 11 11 10 11
7 7 8 8 9 8 8 8 8 8 9 9 8 9 9 9 10 10 10 10 10 10 10 10 10 10 10 10 10 10 10 10 10 11 10 10 10 10 10 10 10 10 10 10
8 8 9 9 9 8 8 8 8 8 8 9 9 8 9 9 10 10 10 10 10 10 10 10 10 10 10 10 10 10 10 10 10 10 10 10 10 10 10 10 10 10 10 10
8 8 9 9 9 8 8 9 9 8 7 7 8 7 9 9 9 9 9 10 10 10 10 10 10 10 10 10 10 10 9 10 10 9 10 10 10 10 10 10 10 9 9 9
8 8 8 9 9 9 8 9 8 8 7 7 7 7 8 8 9 9 9 10 10 10 10 10 10 10 10 10 10 10 9 9 9 9 9 9 9 9 9 9 9 9 9 9
8 9 9 9 9 9 9 8 8 7 7 8 8 7 8 8 9 9 9 10 10 10 10 10 10 10 10 9 9 9 9 9 9 9 9 9 9 9 9 9 9 9 9 9
7 8 9 9 8 8 8 7 7 7 6 7 7 7 7 9 9 9 9 10 10 10 10 10 10 10 9 9 9 9 9 9 9 9 9 9 9 9 9 8 8 8 8 9
7 7 8 8 8 8 8 7 7 7 7 6 7 7 8 9 9 10 10 10 10 10 10 10 10 10 9 9 9 9 9 9 9 9 9 8 8 8 8 8 8 8 8 8
7 7 8 8 9 9 8 7 7 6 6 6 7 7 8 10 9 9 9 10 10 10 10 10 10 10 10 9 9 9 9 9 9 8 8 8 8 8 8 8 8 8 8 8
8 7 7 8 8 8 8 7 6 6 7 8 8 7 8 9 9 8 8 9 9 10 10 10 10 10 10 10 9 9 9 9 9 8 8 8 8 8 8 7 7 7 7 7
8 7 7 7 8 8 8 8 7 6 6 7 7 8 8 9 8 8 8 9 9 10 10 10 10 10 10 9 9 9 8 8 8 8 8 8 8 7 7 7 7 7 7 7
7 6 5 6 7 8 8 8 7 7 7 6 6 7 9 8 8 8 8 9 10 10 10 10 10 10 9 9 9 9 8 8 8 8 8 7 7 7 7 7 7 7 7 7
7 6 6 7 8 7 8 8 7 6 6 5 6 7 8 8 8 9 9 9 10 10 9 9 9 9 9 9 9 8 8 8 8 7 7 7 7 7 7 7 7 7 6 6
7 5 6 7 7 7 6 7 7 6 5 5 6 7 8 8 8 8 9 9 9 9 9 9 9 9 9 8 8 8 8 8 7 7 7 7 7 7 7 6 6 6 6 6
6 5 5 5 6 6 6 6 6 6 6 6 6 6 8 8 7 8 9 9 9 9 9 9 9 9 8 8 8 8 7 7 7 7 7 7 7 7 6 6 6 6 6 6
5 5 5 5 6 5 6 6 6 6 6 6 6 7 8 8 8 8 8 8 8 9 9 9 9 8 8 8 8 7 7 7 7 7 7 7 6 6 6 6 6 5 5 5
4 4 5 4 5 5 6 6 6 6 6 6 6 7 7 7 7 8 8 8 9 9 9 9 8 8 8 8 8 7 7 6 6 6 6 6 6 6 6 5 5 5 5 5
4 4 4 4 5 6 7 7 7 6 6 6 6 6 6 7 8 8 9 8 9 8 8 8 8 8 8 8 7 7 7 6 6 6 6 6 5 5 5 5 5 5 4 4
4 4 3 3 4 5 6 7 7 7 7 6 6 6 6 7 7 7 8 8 8 8 8 8 8 8 8 7 7 7 6 6 6 6 6 6 5 5 5 5 4 4 4 4
3 3 3 3 5 6 7 7 7 7 7 7 6 6 6 6 5 6 8 8 8 8 8 8 7 7 7 7 6 6 6 6 6 6 5 5 5 5 4 4 4 4 3 3
3 3 3 3 4 5 6 6 7 7 7 7 7 6 6 5 6 7 7 7 7 7 7 7 7 7 7 6 6 6 6 5 5 5 5 5 4 4 4 4 3 3 3 3
3 2 2 2 3 5 6 5 5 6 7 7 7 7 6 6 7 7 6 6 6 6 6 6 6 6 6 6 6 5 5 5 5 5 4 4 4 4 3 3 3 3 2 2
3 3 3 3 5 6 6 6 7 7 7 7 7 7 6 6 6 6 6 6 6 6 6 6 5 5 5 5 5 5 5 5 4 4 4 4 4 3 3 3 2 2 2 2
3 3 3 3 3 5 6 6 7 6 6 6 6 6 6 5 5 5 5 5 5 5 5 5 5 5 5 5 5 4 4 4 4 4 4 3 3 3 2 2 2 2 2 1
3 3 2 2 3 4 6 6 6 6 6 6 6 5 5 5 5 5 5 5 5 5 5 5 5 4 4 4 4 4 4 3 3 3 3 3 3 2 2 2 2 1 1 1
2 3 2 3 4 4 5 6 5 5 5 5 5 5 5 4 4 4 4 4 4 4 4 4 4 4 4 4 4 3 3 3 3 3 3 2 2 2 2 1 1 1 1 1
Wind_Speed
1 2 2 5 5 6 5 6 8 7 5 3 6 10 10 6 4 5 5 5 5 5 4 5 6 6 6 5 6 6 5 4 4 3 3 2 2 1 2 2 4 4 4 5
3 3 6 5 4 4 4 6 7 6 4 3 6 10 8 5 5 6 7 7 6 5 4 5 5 5 6 6 5 5 5 4 4 3 3 2 2 1 1 1 2 3 4 4
2 5 4 3 2 3 4 4 5 6 6 3 3 7 6 5 3 3 5 6 6 8 8 8 6 5 5 5 5 6 5 5 4 4 3 4 3 2 1 1 1 1 3 4
3 4 3 3 3 1 5 5 5 4 3 4 1 4 7 4 4 4 5 6 7 7 7 7 7 6 6 5 4 5 5 5 4 5 4 5 4 2 2 2 1 0 2 3
4 3 2 3 4 3 5 5 4 3 1 3 1 1 7 3 4 6 6 7 7 8 8 8 8 8 6 5 5 4 5 4 4 4 5 5 3 2 2 2 2 1 1 1
4 3 2 3 4 3 4 4 3 3 2 2 3 3 6 4 6 5 6 7 8 8 8 7 6 6 5 4 4 4 5 4 4 5 5 5 5 4 3 2 2 1 1 0
6 4 3 2 4 4 4 4 4 5 4 4 3 2 7 7 6 6 6 7 7 8 8 7 7 8 7 6 6 5 6 4 4 5 5 5 6 6 6 4 4 3 2 2
4 6 4 2 1 2 2 3 3 1 3 5 4 4 7 6 4 3 3 4 5 6 7 8 9 9 8 8 7 7 7 6 5 5 5 5 5 4 4 4 4 4 4 3
1 5 4 2 2 1 1 0 3 3 2 3 5 6 7 2 3 2 1 3 5 7 7 8 8 8 8 9 8 8 8 6 6 6 5 4 4 4 4 4 3 3 3 3
3 5 5 4 2 1 2 2 3 2 1 4 6 5 5 5 5 4 3 4 5 5 5 6 7 7 7 7 7 6 7 7 6 5 5 4 4 4 4 4 4 4 4 3
1 2 6 4 2 3 1 1 1 2 2 2 4 7 5 5 4 4 5 4 4 5 6 6 6 7 7 6 6 6 6 5 5 5 4 4 4 4 4 4 4 4 4 4
1 2 4 6 5 2 3 3 4 1 3 2 3 7 6 3 3 2 3 3 3 3 4 4 5 5 5 6 6 6 6 6 5 5 5 4 4 3 4 4 4 4 4 3
1 2 3 7 4 3 1 2 2 2 1 3 3 7 4 3 4 3 3 3 2 2 2 3 3 4 5 6 6 6 6 6 5 5 5 4 4 4 4 4 4 4 4 3
3 3 5 6 6 4 6 6 4 3 3 5 8 10 10 8 7 6 4 4 4 4 3 4 4 5 5 5 6 6 6 5 5 5 5 5 5 5 4 4 4 4 4 4
3 3 5 8 9 7 9 11 8 9 9 9 9 10 13 10 8 6 5 4 4 4 4 5 5 5 5 5 5 6 6 5 5 5 5 6 5 4 4 3 3 3 3 4
2 2 3 6 6 7 11 12 10 10 8 10 11 13 11 8 5 5 5 5 5 6 6 6 6 6 6 7 6 6 6 6 5 6 6 5 4 4 3 3 3 3 3 3
3 3 1 5 6 6 8 8 7 6 7 7 9 9 6 4 5 6 6 5 6 6 6 6 7 7 7 7 7 7 6 5 5 6 5 5 5 4 4 3 3 3 3 2
5 4 2 3 4 5 7 2 5 6 6 7 6 6 5 6 6 5 5 5 6 5 5 6 6 6 5 5 5 5 5 5 6 5 5 5 5 4 3 3 3 2 2 2
5 6 3 2 4 8 8 4 2 3 5 3 4 6 6 5 5 5 4 3 5 5 5 5 6 5 4 5 5 5 5 5 5 6 6 5 5 5 4 4 3 2 2 2
3 4 4 3 4 7 6 3 1 0 4 3 1 3 4 3 4 6 6 4 5 4 4 4 3 3 4 4 5 6 5 5 6 6 6 5 5 5 5 4 3 2 2 2
3 3 5 6 7 9 7 3 1 2 5 3 2 3 3 3 5 6 6 5 4 4 3 2 2 3 4 4 5 6 5 7 6 5 4 4 4 5 4 3 2 2 2 1
7 6 7 6 6 9 3 2 3 5 4 4 4 4 4 6 6 5 5 5 5 4 3 2 2 2 3 4 6 6 7 6 4 4 4 4 4 4 3 3 2 2 2 2
7 8 6 9 9 5 3 5 5 4 5 5 5 6 5 6 5 5 5 6 5 5 4 3 2 3 3 4 6 7 6 4 4 4 5 4 4 3 3 3 3 2 2 2
5 3 4 6 8 7 6 6 6 5 6 7 6 6 5 6 7 7 6 6 5 5 4 3 3 3 4 4 5 6 5 5 5 5 5 4 4 3 3 3 3 3 3 3
6 3 4 7 8 7 6 5 6 6 6 6 6 5 6 7 8 7 7 7 6 5 4 3 4 5 6 5 5 5 4 5 5 5 5 4 4 4 4 4 4 4 5 5
6 7 7 9 8 7 9 7 6 7 7 7 7 7 6 6 8 8 7 7 6 6 5 4 5 6 6 5 5 4 5 6 6 5 5 4 4 4 3 3 3 5 6 7
Wind_Direction
109 61 281 260 233 231 253 269 283 276 273 268 254 269 277 269 237 226 216 201 197 194 179 156 151 151 149 148 151 156 149 163 148 138 134 131 134 118 101 122 125 123 120 116
34 281 256 258 260 247 253 276 288 293 292 265 268 276 273 251 228 218 207 201 192 173 153 156 155 155 159 161 160 159 158 162 164 158 149 144 133 135 131 109 112 134 130 123
217 259 282 292 300 292 274 249 275 291 317 318 304 305 285 274 234 215 203 195 183 180 176 171 167 168 162 168 174 174 170 169 166 147 125 106 88 75 82 83 70 150 144 130
277 286 312 307 290 278 276 246 258 289 339 309 359 301 293 278 276 235 211 196 193 186 180 176 172 171 177 182 183 169 166 164 163 151 151 150 153 165 189 179 171 155 158 146
290 294 311 291 278 251 256 283 274 268 242 308 329 240 290 295 259 246 226 209 204 195 187 185 183 181 179 174 174 166 163 164 163 159 162 155 151 156 141 124 141 168 256 157
259 275 255 263 283 252 276 341 357 29 70 316 255 196 285 263 246 249 227 215 209 198 190 188 180 167 169 169 165 163 167 173 171 165 165 165 164 159 155 169 180 198 245 246
327 317 304 306 334 350 33 49 20 5 3 272 283 216 258 264 251 230 224 217 210 193 186 184 177 177 182 182 179 176 174 182 181 174 178 181 178 175 181 190 193 193 209 224
342 311 298 311 264 295 330 110 129 238 268 291 314 253 262 277 282 254 218 204 194 188 190 192 190 188 190 192 188 185 186 189 187 188 193 190 184 184 193 197 195 201 211 218
264 281 295 277 263 165 10 107 173 156 263 279 286 291 304 318 332 323 249 186 197 198 194 196 197 195 196 197 197 194 193 194 194 195 192 193 191 191 198 201 197 206 217 217
186 277 296 303 351 315 181 164 82 91 327 300 302 292 275 294 296 294 270 226 219 213 204 202 200 199 201 200 197 193 193 198 198 194 194 197 197 197 196 188 200 209 216 213
154 234 306 337 256 251 210 171 143 148 181 212 294 284 244 263 264 257 261 254 233 220 213 208 207 203 197 191 189 190 193 194 194 194 194 191 198 199 193 196 208 210 212 206
147 144 277 272 265 251 205 204 158 171 267 215 236 272 282 274 282 254 270 272 254 223 211 205 199 192 189 191 192 193 194 194 198 193 188 194 194 192 198 210 213 206 208 211
128 116 332 337 337 346 285 245 191 169 181 209 226 267 303 337 332 304 280 274 259 240 221 207 193 193 198 199 199 197 197 198 195 186 184 190 192 196 210 217 213 203 202 210
122 170 196 228 250 263 273 267 239 195 217 241 237 261 289 300 299 295 286 265 254 238 221 210 209 210 207 203 201 200 202 197 190 184 184 192 200 203 208 209 207 206 202 208
122 221 243 256 266 263 261 264 246 223 219 229 253 259 271 275 274 270 266 260 251 245 236 225 217 216 214 208 205 203 202 197 188 185 192 202 202 197 194 199 206 207 209 216
145 222 278 284 277 277 274 267 249 240 235 240 260 272 271 276 277 273 266 251 246 245 241 236 225 215 214 210 206 204 206 200 186 189 199 198 189 187 192 201 202 204 219 225
194 184 254 278 303 318 280 253 216 221 221 211 235 254 283 298 289 268 259 253 245 246 245 238 229 219 216 212 202 201 204 196 187 191 194 191 188 189 195 194 191 205 216 221
174 166 199 281 340 263 249 249 210 228 251 233 244 268 283 277 280 271 248 240 252 257 254 245 235 222 216 206 199 191 183 185 189 191 193 192 186 191 188 182 198 210 210 218
173 164 183 217 269 277 291 278 214 224 277 255 251 282 300 312 333 314 285 260 251 253 254 246 235 223 208 197 187 172 179 186 192 199 199 196 187 187 188 195 207 214 210 230
119 143 167 196 240 254 257 270 282 108 281 296 284 296 312 343 329 293 301 298 286 282 271 255 237 209 202 202 174 170 183 189 204 208 201 192 186 187 195 203 204 201 205 225
144 172 200 213 239 264 261 267 76 209 264 297 285 282 282 251 249 276 296 298 293 292 288 273 225 210 212 191 170 181 191 209 215 201 185 183 184 190 193 189 190 194 202 218
183 184 199 189 218 255 249 143 191 241 285 291 279 272 270 268 278 287 290 292 299 302 297 284 250 240 219 186 179 194 211 217 197 181 183 188 189 190 182 178 193 195 192 217
205 198 194 200 222 254 225 227 255 260 275 279 274 276 273 274 278 284 288 289 288 284 278 271 247 245 238 207 193 206 219 198 182 183 192 196 193 194 186 186 198 208 208 220
250 206 201 249 262 263 261 266 274 261 260 272 272 274 270 273 276 280 282 282 281 276 270 266 250 244 247 232 221 220 213 187 182 192 200 196 193 202 203 201 199 204 214 225
235 209 230 258 274 291 271 253 263 270 270 276 281 275 268 268 273 272 275 274 270 271 266 255 244 246 248 238 233 227 205 185 191 199 202 202 202 204 211 216 218 219 222 219
216 212 222 251 252 253 270 273 272 272 277 279 281 285 278 260 265 271 270 268 266 268 266 259 250 246 248 235 233 228 208 193 193 202 205 203 204 209 211 219 253 249 241 250
Height
1522 1525 1525 1522 1520 1519 1519 1518 1516 1510 1505 1505 1503 1499 1494 1493 1493 1492 1492 1492 1493 1494 1496 1497 1499 1501 1503 1504 1505 1507 1508 1510 1511 1512 1513 1514 1515 1516 1517 1518 1519 1520 1521 1521
1525 1525 1520 1517 1516 1517 1517 1517 1514 1509 1504 1504 1502 1498 1492 1490 1490 1489 1489 1490 1491 1492 1494 1496 1497 1499 1501 1502 1504 1505 1506 1508 1509 1510 1512 1513 1514 1514 1515 1516 1517 1518 1519 1520
1524 1522 1517 1516 1516 1516 1515 1515 1513 1511 1506 1502 1503 1499 1492 1488 1487 1488 1488 1488 1489 1491 1492 1494 1496 1497 1499 1500 1502 1504 1505 1507 1508 1509 1510 1511 1512 1512 1513 1514 1515 1516 1517 1518
1522 1518 1517 1516 1515 1515 1515 1510 1509 1509 1511 1512 1508 1510 1495 1490 1488 1486 1486 1487 1488 1489 1491 1492 1493 1495 1497 1500 1502 1502 1504 1506 1506 1507 1508 1509 1509 1510 1511 1513 1514 1514 1515 1516
1522 1518 1517 1516 1514 1513 1512 1508 1508 1508 1510 1513 1510 1512 1501 1491 1489 1486 1484 1485 1486 1488 1489 1490 1492 1494 1496 1499 1500 1501 1503 1504 1505 1506 1507 1508 1508 1509 1510 1511 1512 1513 1513 1514
1520 1517 1516 1514 1512 1511 1509 1509 1508 1510 1513 1514 1510 1512 1504 1494 1487 1483 1482 1482 1483 1485 1487 1489 1491 1493 1495 1497 1499 1499 1501 1502 1503 1504 1505 1506 1506 1507 1508 1508 1509 1510 1511 1511
1522 1518 1515 1514 1513 1511 1511 1516 1521 1519 1522 1515 1509 1509 1501 1486 1482 1480 1480 1480 1481 1483 1485 1487 1489 1491 1493 1495 1496 1498 1499 1500 1501 1502 1503 1504 1505 1505 1506 1507 1508 1508 1509 1509
1528 1526 1516 1514 1514 1514 1514 1516 1524 1524 1524 1519 1510 1507 1494 1483 1480 1478 1478 1478 1480 1481 1483 1485 1487 1489 1491 1493 1494 1496 1497 1498 1499 1500 1501 1502 1503 1504 1504 1505 1506 1506 1507 1507
1528 1525 1515 1513 1512 1513 1514 1517 1517 1524 1523 1521 1512 1502 1489 1481 1480 1479 1478 1478 1479 1480 1481 1483 1485 1487 1489 1491 1492 1494 1495 1496 1497 1498 1499 1500 1501 1501 1502 1503 1503 1504 1504 1504
1524 1526 1518 1514 1513 1512 1514 1515 1521 1522 1520 1517 1510 1505 1497 1485 1482 1480 1479 1478 1478 1479 1480 1482 1483 1485 1487 1489 1490 1492 1493 1494 1495 1496 1497 1498 1498 1499 1500 1500 1500 1501 1501 1501
1522 1526 1522 1517 1515 1514 1514 1515 1517 1522 1522 1520 1517 1505 1488 1484 1482 1481 1479 1478 1477 1478 1479 1480 1481 1483 1485 1487 1488 1489 1490 1491 1492 1493 1494 1495 1496 1497 1497 1497 1497 1498 1498 1498
1522 1527 1528 1519 1513 1511 1512 1512 1516 1521 1519 1521 1520 1507 1483 1482 1480 1479 1478 1478 1478 1478 1478 1479 1480 1481 1483 1484 1486 1487 1488 1489 1490 1491 1492 1492 1493 1494 1494 1494 1494 1495 1495 1495
1522 1526 1528 1520 1518 1514 1512 1511 1512 1515 1519 1522 1520 1503 1483 1481 1480 1479 1478 1477 1477 1477 1477 1478 1478 1479 1481 1482 1483 1484 1485 1486 1487 1488 1489 1490 1490 1491 1491 1491 1491 1491 1492 1492
1520 1525 1527 1523 1516 1515 1514 1511 1510 1514 1519 1517 1509 1497 1486 1483 1481 1479 1478 1477 1476 1476 1476 1476 1477 1477 1478 1479 1480 1481 1482 1483 1484 1485 1486 1486 1487 1487 1488 1488 1488 1488 1488 1488
1520 1524 1522 1518 1514 1514 1511 1508 1507 1509 1508 1509 1499 1494 1485 1482 1480 1478 1477 1476 1475 1475 1474 1474 1475 1475 1476 1476 1477 1478 1479 1480 1481 1482 1482 1483 1484 1484 1484 1485 1485 1485 1484 1485
1519 1522 1520 1518 1512 1511 1507 1502 1502 1501 1500 1498 1495 1490 1480 1479 1478 1476 1475 1474 1473 1472 1472 1472 1472 1472 1473 1473 1474 1475 1476 1477 1478 1478 1479 1480 1480 1480 1481 1481 1481 1481 1481 1481
1520 1521 1521 1520 1514 1510 1504 1494 1494 1494 1492 1491 1491 1485 1479 1478 1476 1475 1473 1472 1471 1470 1470 1470 1469 1469 1470 1471 1471 1472 1473 1474 1475 1475 1476 1476 1477 1477 1477 1477 1477 1477 1477 1476
1517 1519 1522 1521 1516 1511 1494 1487 1487 1488 1486 1485 1483 1480 1479 1477 1474 1473 1472 1470 1469 1468 1468 1467 1467 1467 1467 1468 1469 1469 1470 1471 1471 1472 1472 1473 1473 1473 1473 1473 1473 1473 1473 1473
1511 1515 1520 1521 1518 1507 1492 1486 1485 1486 1484 1481 1480 1479 1477 1475 1473 1471 1470 1469 1468 1467 1466 1465 1465 1464 1464 1465 1465 1466 1466 1467 1467 1468 1469 1469 1470 1470 1470 1470 1470 1469 1469 1469
1510 1512 1518 1518 1513 1503 1489 1484 1483 1485 1484 1480 1478 1477 1476 1475 1477 1472 1469 1468 1466 1465 1463 1462 1462 1461 1461 1462 1462 1462 1463 1463 1463 1464 1465 1466 1466 1467 1466 1466 1466 1466 1466 1465
1512 1514 1515 1515 1511 1499 1486 1483 1483 1488 1484 1479 1477 1476 1475 1474 1474 1471 1468 1466 1464 1462 1461 1460 1459 1458 1458 1459 1459 1459 1459 1460 1461 1461 1462 1463 1463 1463 1463 1463 1462 1462 1462 1462
1505 1510 1511 1511 1509 1498 1482 1483 1484 1482 1478 1477 1475 1474 1473 1471 1469 1467 1465 1463 1461 1459 1458 1457 1456 1456 1455 1456 1456 1455 1456 1456 1457 1458 1458 1459 1459 1459 1459 1459 1459 1459 1458 1458
1498 1495 1495 1496 1490 1482 1480 1479 1479 1478 1476 1475 1473 1472 1470 1468 1466 1464 1462 1461 1459 1457 1455 1454 1453 1453 1452 1452 1452 1452 1452 1453 1453 1454 1454 1455 1455 1455 1455 1455 1455 1455 1454 1454
1490 1488 1490 1488 1481 1478 1477 1476 1475 1475 1473 1472 1470 1469 1467 1465 1463 1461 1459 1457 1455 1454 1452 1451 1450 1449 1449 1449 1448 1449 1449 1449 1449 1450 1450 1451 1451 1451 1451 1451 1451 1451 1451 1450
1485 1485 1485 1483 1477 1474 1472 1472 1472 1471 1469 1468 1466 1465 1463 1461 1459 1457 1455 1453 1451 1450 1448 1447 1446 1445 1445 1445 1444 1445 1445 1445 1445 1446 1446 1447 1447 1447 1447 1447 1447 1447 1447 1446
1479 1480 1481 1476 1472 1472 1469 1468 1467 1466 1464 1463 1461 1459 1458 1456 1454 1452 1450 1448 1447 1445 1444 1443 1442 1441 1441 1440 1440 1440 1440 1440 1441 1441 1442 1442 1442 1442 1443 1443 1443 1442 1442 1442